Date,TemperatureHighF,TemperatureAvgF,TemperatureLowF,DewpointHighF,DewpointAvgF,DewpointLowF,HumidityHigh,HumidityAvg,HumidityLow,PressureMaxIn,PressureMinIn,WindSpeedMaxMPH,WindSpeedAvgMPH,GustSpeedMaxMPH,PrecipitationSumIn
2013-3-1,27.2,25.1,24.2,20.3,18.3,16.3,76,75,69,30.33,30.19,21,1,21,0.00
2013-3-2,32.0,29.9,24.2,17.7,16.0,15.4,76,57,50,30.30,30.11,0,0,0,0.00
2013-3-3,36.5,32.9,32.0,28.1,19.9,15.4,75,59,50,30.11,29.66,14,2,17,0.00
2013-3-4,35.2,34.0,30.3,30.3,26.8,25.0,88,75,71,30.05,29.58,12,2,17,0.00
2013-3-5,33.1,32.7,32.7,28.7,27.8,27.8,84,82,82,30.34,29.99,14,1,18,0.00
2013-3-6,32.7,32.7,32.7,27.8,27.8,27.8,82,82,82,30.38,30.19,0,0,0,0.00
2013-3-7,53.5,39.5,23.5,29.6,26.4,18.2,82,62,36,30.28,30.05,25,13,25,0.00
2013-3-8,45.2,31.9,28.4,38.0,26.5,23.9,84,80,72,30.18,29.89,15,4,17,0.02
2013-3-9,47.4,46.0,44.1,41.5,40.0,38.0,84,79,77,29.88,29.53,20,7,20,0.04
2013-3-10,47.4,47.4,47.4,40.6,40.6,40.6,77,77,77,29.89,29.61,0,0,0,0.00
2013-3-11,47.4,47.4,47.4,40.6,40.6,40.6,77,77,77,29.95,29.83,0,0,0,0.00
2013-3-12,47.4,47.4,47.4,40.6,40.6,40.6,77,77,77,30.29,29.95,0,0,0,0.00
2013-3-13,47.4,47.4,47.4,40.6,40.6,40.6,77,77,77,30.41,30.19,0,0,0,0.00
2013-3-14,47.4,47.4,47.4,40.6,40.6,40.6,77,77,77,30.19,30.01,0,0,0,0.00
2013-3-15,47.4,47.4,47.4,40.6,40.6,40.6,77,77,77,30.02,29.63,0,0,0,0.00
2013-3-16,47.4,33.7,30.4,40.6,27.5,24.3,87,78,70,30.18,29.78,23,10,23,0.00
2013-3-17,47.6,34.0,25.2,31.9,25.9,20.9,87,73,53,30.16,29.76,21,11,21,0.00
2013-3-18,41.8,35.1,27.5,32.8,23.2,13.5,94,65,34,30.08,29.74,36,12,36,0.12
2013-3-19,49.0,34.7,24.2,34.6,20.6,16.0,76,57,33,30.33,30.07,24,5,24,0.00
2013-3-20,37.6,26.0,16.4,18.4,10.2,3.5,80,53,31,30.43,30.13,21,10,21,0.00
2013-3-21,34.1,27.0,21.0,17.6,14.0,10.4,79,59,40,30.13,29.93,18,8,18,0.00
2013-3-22,35.5,31.7,28.1,20.7,18.6,14.1,72,59,48,30.05,29.97,11,4,11,0.00
2013-3-23,36.5,31.5,27.5,29.2,24.8,20.3,93,77,60,30.12,30.01,18,8,18,0.00
2013-3-24,29.4,26.8,24.0,25.4,21.2,16.9,90,79,66,30.12,30.04,28,16,28,0.00
2013-3-25,30.8,26.9,24.2,24.4,21.6,18.4,89,81,65,30.38,30.11,26,15,26,0.00
2013-3-26,42.8,28.7,16.0,22.8,18.1,11.2,86,66,41,30.43,30.26,13,3,13,0.00
2013-3-27,53.1,37.6,26.1,32.4,26.1,21.1,82,65,41,30.30,30.17,20,10,20,0.00
2013-3-28,61.8,44.7,25.3,33.6,30.0,22.4,90,60,29,30.26,30.12,11,4,11,0.00
2013-3-29,70.3,52.4,30.8,39.7,32.8,27.2,91,53,22,30.21,30.01,21,7,21,0.00
2013-3-30,67.5,55.6,47.0,54.9,44.3,33.9,94,69,34,30.05,29.84,23,7,23,1.17
2013-3-31,58.2,49.8,34.4,42.4,34.4,24.2,90,60,28,30.10,29.91,28,11,28,0.02